Regional Weather Roundup
Issued by NWS

Home | Current Version | Previous Version | Graphics & Text | Print | Product List | Glossary On
Versions: 1 2 3 4 5 6 7 8 9 10 11 12 13 14 15 16 17 18 19 20 21 22 23 24 25 26 27 28 29 30 31 32 33 34 35 36 37 38 39 40 41 42 43 44 45 46 47 48 49 50
000
ASUS43 KLSX 250110
RWRMO

WEATHER SUMMARY FOR MISSOURI
NATIONAL WEATHER SERVICE SPRINGFIELD MO
800 PM CDT WED MAY 24 2017

NOTE: "FAIR" INDICATES FEW OR NO CLOUDS BELOW 12,000 FEET WITH NO
       SIGNIFICANT WEATHER AND/OR OBSTRUCTIONS TO VISIBILITY.
       CURRENT SKY AND/OR WEATHER CONDITIONS ARE NOT AVAILABLE FOR
       CHILLICOTHE AND FARMINGTON.

MOZ001>031-035>038-043-044-053-054-250200-
...NORTHERN AND WESTERN MISSOURI...

CITY           SKY/WX    TMP DP  RH WIND       PRES   REMARKS
KANSAS CTY INT PTCLDY    62  50  64 N7        29.68R
KANSAS C DTWN  CLEAR     65  47  52 N6        29.67R
LEE`S SUMMIT   CLEAR     63  48  58 N9        29.68R
ST JOSEPH      PTCLDY    63  50  62 NE5       29.68R
CHILLICOTHE      N/A     64  49  57 VRB3      29.67R
KIRKSVILLE     PTCLDY    58  53  84 NW5       29.65S

$$
MOZ066>068-077>081-088>096-101>105-250200-
...SOUTHWEST MISSOURI...

CITY           SKY/WX    TMP DP  RH WIND       PRES   REMARKS
SPRINGFIELD    CLOUDY    57  53  86 NW6       29.68R
JOPLIN         MOCLDY    63  52  67 NW6       29.70R
BRANSON        MOCLDY    52  50  93 CALM      29.70S

$$
MOZ032>034-039>042-045>050-055>058-069>072-250200-
...CENTRAL MISSOURI...

CITY           SKY/WX    TMP DP  RH WIND       PRES   REMARKS
COLUMBIA       CLEAR     60  50  69 NW9       29.63S
JEFFERSON CITY CLEAR     66  48  52 NW8       29.63R
ROLLA          CLEAR     58  47  66 NW5       29.62R
SEDALIA        CLEAR     61  52  72 NW7       29.67R
WHITEMAN AFB   MOCLDY    58  58 100 NW3       29.66S
WARRENSBURG    CLOUDY    57  52  82 CALM      29.67S
OSAGE BEACH    CLOUDY    60  49  66 VRB5      29.66R

$$
MOZ051-052-059>065-250200-
...EAST CENTRAL MISSOURI...

CITY           SKY/WX    TMP DP  RH WIND       PRES   REMARKS
ST LOUIS INTL  PTCLDY    64  48  56 NW8       29.59R
SPIRIT OF STL  PTCLDY    64  51  62 N6        29.58R
ST CHARLES     CLEAR     60  51  72 NW9       29.58R

$$
MOZ072>076-082>087-097>100-106>115-250200-
...SOUTH CENTRAL AND SOUTHEAST MISSOURI...

CITY           SKY/WX    TMP DP  RH WIND       PRES   REMARKS
CAPE GIRARDEAU MOCLDY    61  48  62 W9        29.57R
FARMINGTON     PTCLDY    57  51  80 W7        29.61R
POPLAR BLUFF   CLOUDY    61  50  67 NW7       29.60R
WEST PLAINS    CLEAR     57  49  74 W7        29.65S

$$




USA.gov is the U.S. government's official web portal to all federal, state and local government web resources and services.